GSAT-15 (GAGAN/PRN 139)

Last updated on Oct. 29, 2020, 5:53 a.m. UTC

1 41028U 15065A   20302.78933806 -.00000260  00000-0  00000+0 0  9991
2 41028   0.0143 258.5323 0003553 285.7987 230.9368  1.00271728 18238
UTC
Height (km)
Latitude
Longitude
Inclination
Orbital Period
UTC large
Height (km)
Speed (km/s)
/
Latitude / Longitude
Inclination (degrees)
Orbital Period (minutes)
Azimuth
Elevation
Range (km)
Doppler Factor
iOS Compass Heading
iOS Angle

Next 30 passes for location: Hong Kong

Rise time Rise Azimuth (degrees) Set time Set Azimuth (degrees) Duration Max altitude (degrees)

No matching passes for this satellites